Kansay

Tajikistan     40˚29′32″N   69˚42′09″E
temp.,
°C
wind,
m/s
gust,
m/s
humid.,
%
clouds,
%
prec.,
mm/h
press.,
hPa
HPBL,
m
28 november, sat
sat2823:00+5˚nnw2342100 0.0 102422
02:00+5˚wnw81444100 0.0 1026228
05:00−1˚nw61494100 3.4 1033588
08:00−2˚nw71596100 10.1 1038966
11:00−1˚nw6118492 12.2 1041720
14:00nw588033 0.0 1041654
17:00−5˚nnw338117 0.0 104259
20:00−5˚n33570 0.0 104325
29 november, sun
sun2923:00−5˚ene23410 0.0 104221
02:00−5˚ene33680 0.0 104021
05:00−5˚ene23580 0.0 104027
08:00−5˚ene23510 0.0 103922
11:00ese23650 0.0 1037199
14:00se127534 0.0 1035260
17:00−4˚ne117964 0.0 103521
20:00−4˚ene2266100 0.0 103521
30 november, mon
mon3023:00−4˚ene225775 0.0 103521
02:00−4˚ene235154 0.0 103522
05:00−4˚ene345033 0.0 103325
08:00−3˚ene34460 0.0 103228
11:00+2˚e456433 0.0 1030175
14:00+2˚e3467100 0.0 1028154
17:00ene4443100 0.0 102733
20:00ene4442100 0.0 102635
1 december, tue
tue123:00+1˚ne3343100 0.0 102530
02:00ene1137100 0.0 102522
05:00+1˚ene1246100 0.1 102522
08:00+2˚n2262100 0.3 102526
11:00+1˚e3485100 1.3 1026106
14:00+2˚e3489100 0.2 1025101
17:00+2˚e4585100 0.2 1027113
20:00+2˚e4585100 0.0 1029108
2 december, wed
wed223:00+1˚e458196 0.0 102983
02:00+1˚ene457377 0.0 102974
05:00+2˚ene346984 0.0 102950
08:00+3˚ene4468100 0.0 102961
11:00+4˚e4585100 0.0 1028122
14:00+4˚e348699 0.0 1026127
17:00+4˚e3469100 0.0 102656
20:00+4˚ene346471 0.0 102736